RYR14T EDDK-EGKK

Flight info

Callsign RYR14T
Flight time N/A
Altitude 32000
Route NVO2R NVO Y868 SOGRI L608 DENUT L610 TEBRA
Aircraft B738/M-SDE2E3FGHIRWXY/LB1

Departure

Time 2026-05-06 20:24
Airport Cologne Bonn Airport (EDDK)

Arrival

Time N/A
Airport London Gatwick Airport (EGKK)
Time Latitude Longitude Altitude Speed Heading
2026-05-06 19:54 50.87802 7.12423 231 ft 0 kts 288°
2026-05-06 20:11 50.87798 7.12445 231 ft 4 kts 288°
2026-05-06 20:12 50.87790 7.12485 233 ft 3 kts 288°
2026-05-06 20:12 50.87782 7.12517 231 ft 4 kts 306°
2026-05-06 20:12 50.87763 7.12541 235 ft 4 kts 353°
2026-05-06 20:12 50.87739 7.12536 235 ft 4 kts 18°
2026-05-06 20:13 50.87714 7.12523 231 ft 3 kts 18°
2026-05-06 20:13 50.87709 7.12520 231 ft 0 kts 18°
2026-05-06 20:17 50.87720 7.12526 232 ft 3 kts 18°
2026-05-06 20:17 50.87751 7.12558 231 ft 7 kts 44°
2026-05-06 20:17 50.87773 7.12649 231 ft 10 kts 92°
2026-05-06 20:18 50.87737 7.12747 231 ft 10 kts 136°
2026-05-06 20:18 50.87685 7.12823 231 ft 10 kts 137°
2026-05-06 20:18 50.87624 7.12909 231 ft 13 kts 139°
2026-05-06 20:18 50.87546 7.13022 231 ft 17 kts 137°
2026-05-06 20:19 50.87450 7.13162 231 ft 20 kts 137°
2026-05-06 20:19 50.87340 7.13324 231 ft 22 kts 137°
2026-05-06 20:19 50.87224 7.13490 236 ft 22 kts 138°
2026-05-06 20:19 50.87111 7.13651 238 ft 22 kts 137°
2026-05-06 20:20 50.87002 7.13808 243 ft 21 kts 137°
2026-05-06 20:20 50.86897 7.13962 252 ft 20 kts 137°
2026-05-06 20:20 50.86793 7.14109 254 ft 20 kts 146°
2026-05-06 20:20 50.86680 7.14215 258 ft 19 kts 137°
2026-05-06 20:21 50.86585 7.14355 261 ft 18 kts 136°
2026-05-06 20:21 50.86492 7.14489 266 ft 18 kts 137°
2026-05-06 20:21 50.86402 7.14619 271 ft 17 kts 137°
2026-05-06 20:21 50.86316 7.14745 276 ft 17 kts 137°
2026-05-06 20:22 50.86232 7.14865 281 ft 16 kts 137°
2026-05-06 20:22 50.86152 7.14980 285 ft 15 kts 137°
2026-05-06 20:22 50.86075 7.15091 287 ft 15 kts 137°
2026-05-06 20:22 50.86041 7.15208 291 ft 12 kts 83°
2026-05-06 20:23 50.86075 7.15321 294 ft 12 kts 47°
2026-05-06 20:23 50.86148 7.15357 289 ft 11 kts 355°
2026-05-06 20:23 50.86230 7.15331 290 ft 13 kts 347°
2026-05-06 20:23 50.86340 7.15288 284 ft 21 kts 342°
2026-05-06 20:24 50.86489 7.15159 279 ft 31 kts 321°
2026-05-06 20:24 50.86915 7.14546 259 ft 134 kts 317°
2026-05-06 20:24 50.87798 7.13266 545 ft 198 kts 317°
2026-05-06 20:24 50.88854 7.11642 1505 ft 223 kts 315°
2026-05-06 20:25 50.89963 7.09768 2465 ft 245 kts 312°
2026-05-06 20:25 50.90897 7.07321 2859 ft 276 kts 291°
2026-05-06 20:25 50.91172 7.04287 3589 ft 293 kts 270°
2026-05-06 20:25 50.90761 7.00950 3968 ft 327 kts 254°
2026-05-06 20:26 50.89917 6.97412 4231 ft 358 kts 250°
2026-05-06 20:26 50.88966 6.93736 4582 ft 350 kts 250°
2026-05-06 20:26 50.88104 6.90287 5180 ft 331 kts 251°
2026-05-06 20:26 50.87312 6.86890 6404 ft 325 kts 252°
2026-05-06 20:27 50.86570 6.83553 7814 ft 318 kts 253°
2026-05-06 20:27 50.85861 6.80289 9295 ft 308 kts 253°
2026-05-06 20:27 50.85190 6.77168 10590 ft 302 kts 253°
2026-05-06 20:27 50.84499 6.73943 11209 ft 321 kts 253°
2026-05-06 20:28 50.83751 6.70447 11428 ft 350 kts 253°
2026-05-06 20:28 50.82954 6.66728 12029 ft 362 kts 253°
2026-05-06 20:28 50.82267 6.62880 12908 ft 364 kts 264°
2026-05-06 20:28 50.82251 6.58884 13886 ft 365 kts 274°
2026-05-06 20:29 50.82345 6.54868 14882 ft 365 kts 273°
2026-05-06 20:29 50.82427 6.50841 15812 ft 368 kts 272°
2026-05-06 20:29 50.82495 6.46764 16608 ft 374 kts 272°
2026-05-06 20:29 50.82550 6.42681 17382 ft 379 kts 272°
2026-05-06 20:30 50.82598 6.38492 18173 ft 383 kts 271°
2026-05-06 20:30 50.82675 6.30093 19121 ft 377 kts 271°
2026-05-06 20:30 50.82711 6.25878 19343 ft 389 kts 271°
2026-05-06 20:31 50.82746 6.21555 19892 ft 396 kts 271°
2026-05-06 20:31 50.82781 6.17197 20597 ft 398 kts 270°
2026-05-06 20:31 50.82817 6.12785 21126 ft 405 kts 270°
2026-05-06 20:31 50.82853 6.08321 21837 ft 406 kts 270°
2026-05-06 20:32 50.82887 6.03841 22443 ft 410 kts 270°
2026-05-06 20:32 50.82900 5.99375 23538 ft 400 kts 269°
2026-05-06 20:32 50.82860 5.95195 24657 ft 366 kts 268°
2026-05-06 20:32 50.82809 5.91328 25104 ft 342 kts 268°
2026-05-06 20:33 50.82731 5.87613 25085 ft 335 kts 267°
2026-05-06 20:33 50.82640 5.83901 25141 ft 343 kts 267°
2026-05-06 20:33 50.82544 5.80046 25268 ft 360 kts 267°
2026-05-06 20:33 50.82446 5.76006 25524 ft 373 kts 267°
2026-05-06 20:34 50.82350 5.71880 26069 ft 377 kts 267°
2026-05-06 20:34 50.82252 5.67736 26716 ft 378 kts 267°
2026-05-06 20:34 50.82154 5.63575 27313 ft 380 kts 267°
2026-05-06 20:34 50.82054 5.59450 27909 ft 382 kts 267°
2026-05-06 20:35 50.81951 5.55241 28459 ft 385 kts 267°
2026-05-06 20:35 50.81846 5.50994 28966 ft 388 kts 267°
2026-05-06 20:35 50.81737 5.46672 29150 ft 400 kts 266°
2026-05-06 20:35 50.81758 5.42206 29243 ft 413 kts 275°
2026-05-06 20:36 50.82333 5.37699 29370 ft 425 kts 284°
2026-05-06 20:36 50.83305 5.33236 29538 ft 434 kts 289°
2026-05-06 20:36 50.84414 5.28751 29804 ft 440 kts 290°
2026-05-06 20:36 50.85545 5.24301 30153 ft 443 kts 290°
2026-05-06 20:37 50.86698 5.19777 30631 ft 442 kts 290°
2026-05-06 20:37 50.87837 5.15279 31174 ft 439 kts 291°
2026-05-06 20:37 50.88960 5.10798 31657 ft 438 kts 290°
2026-05-06 20:37 50.90077 5.06305 31939 ft 440 kts 290°
2026-05-06 20:38 50.91192 5.01790 31932 ft 439 kts 290°
2026-05-06 20:38 50.93401 4.92788 31952 ft 440 kts 290°
2026-05-06 20:39 50.95626 4.83675 31950 ft 445 kts 290°
2026-05-06 20:39 50.97841 4.74568 31942 ft 445 kts 290°
2026-05-06 20:40 51.00061 4.65408 31958 ft 445 kts 290°
2026-05-06 20:40 51.02273 4.56244 31965 ft 444 kts 290°
2026-05-06 20:41 51.04455 4.47162 31965 ft 443 kts 290°
2026-05-06 20:41 51.06643 4.38020 31966 ft 442 kts 290°
2026-05-06 20:42 51.08788 4.29018 31966 ft 442 kts 290°
2026-05-06 20:42 51.10957 4.19875 31965 ft 442 kts 290°
2026-05-06 20:43 51.13105 4.10788 31963 ft 442 kts 290°
2026-05-06 20:43 51.15259 4.01631 31960 ft 442 kts 290°
2026-05-06 20:44 51.17409 3.92458 31956 ft 442 kts 290°
2026-05-06 20:44 51.19550 3.83278 31954 ft 442 kts 290°
2026-05-06 20:45 51.21686 3.74088 31951 ft 442 kts 290°
2026-05-06 20:45 51.23761 3.64934 31951 ft 441 kts 286°
2026-05-06 20:46 51.25060 3.55383 31952 ft 441 kts 280°
2026-05-06 20:46 51.26233 3.45784 31958 ft 441 kts 281°
2026-05-06 20:47 51.27483 3.36201 31965 ft 440 kts 282°
2026-05-06 20:47 51.28724 3.26690 31974 ft 440 kts 281°
2026-05-06 20:48 51.29962 3.17114 31983 ft 440 kts 281°
2026-05-06 20:48 51.31188 3.07558 31979 ft 437 kts 281°
2026-05-06 20:49 51.32371 2.98267 31967 ft 413 kts 281°
2026-05-06 20:49 51.33498 2.89364 31944 ft 397 kts 281°
2026-05-06 20:49 51.34026 2.85179 31961 ft 382 kts 281°
2026-05-06 20:50 51.34540 2.81087 31953 ft 369 kts 281°
2026-05-06 20:50 51.35035 2.77136 31953 ft 356 kts 281°
2026-05-06 20:50 51.35510 2.73320 31965 ft 343 kts 281°
2026-05-06 20:50 51.35964 2.69636 31954 ft 332 kts 281°
2026-05-06 20:51 51.36401 2.66066 31966 ft 323 kts 281°
2026-05-06 20:51 51.37266 2.58807 31779 ft 345 kts 281°
2026-05-06 20:51 51.37734 2.54981 31020 ft 357 kts 281°
2026-05-06 20:52 51.38220 2.51029 29820 ft 377 kts 281°
2026-05-06 20:52 51.38737 2.46801 28414 ft 396 kts 280°
2026-05-06 20:52 51.39268 2.42422 27466 ft 403 kts 280°
2026-05-06 20:52 51.39798 2.38029 26922 ft 399 kts 280°
2026-05-06 20:53 51.40319 2.33696 26421 ft 394 kts 280°
2026-05-06 20:53 51.40832 2.29401 25866 ft 391 kts 280°
2026-05-06 20:53 51.41340 2.25140 25346 ft 388 kts 280°
2026-05-06 20:53 51.41856 2.20901 24800 ft 386 kts 280°
2026-05-06 20:54 51.42364 2.16753 24271 ft 384 kts 280°
2026-05-06 20:54 51.42875 2.12583 23836 ft 379 kts 280°
2026-05-06 20:54 51.43380 2.08442 23284 ft 377 kts 280°
2026-05-06 20:54 51.43878 2.04339 22755 ft 373 kts 280°
2026-05-06 20:55 51.44367 2.00284 22221 ft 370 kts 280°
2026-05-06 20:55 51.44852 1.96242 21636 ft 368 kts 280°
2026-05-06 20:55 51.45329 1.92228 21169 ft 364 kts 280°
2026-05-06 20:55 51.45801 1.88248 20633 ft 362 kts 280°
2026-05-06 20:56 51.46258 1.84345 20135 ft 360 kts 280°
2026-05-06 20:56 51.46710 1.80415 19648 ft 357 kts 280°
2026-05-06 20:56 51.47156 1.76512 19169 ft 354 kts 280°
2026-05-06 20:56 51.47598 1.72644 18691 ft 352 kts 280°
2026-05-06 20:57 51.48037 1.68796 18190 ft 350 kts 280°
2026-05-06 20:57 51.48473 1.64969 17663 ft 347 kts 280°
2026-05-06 20:57 51.48680 1.61136 17135 ft 346 kts 265°
2026-05-06 20:57 51.48125 1.57406 16645 ft 343 kts 251°
2026-05-06 20:58 51.47284 1.53830 16171 ft 341 kts 250°
2026-05-06 20:58 51.46428 1.50301 15693 ft 339 kts 250°
2026-05-06 20:58 51.45591 1.46773 15201 ft 337 kts 250°
2026-05-06 20:58 51.44782 1.43307 14716 ft 336 kts 251°
2026-05-06 20:59 51.43962 1.39803 14268 ft 335 kts 248°
2026-05-06 20:59 51.42703 1.36690 13967 ft 333 kts 227°
2026-05-06 20:59 51.40957 1.34302 13797 ft 329 kts 219°
2026-05-06 20:59 51.39104 1.32107 13599 ft 334 kts 217°
2026-05-06 21:00 51.37204 1.29924 13404 ft 338 kts 217°
2026-05-06 21:00 51.35294 1.27730 13214 ft 337 kts 217°
2026-05-06 21:00 51.33398 1.25538 13022 ft 335 kts 217°
2026-05-06 21:00 51.31517 1.23345 12851 ft 334 kts 218°
2026-05-06 21:01 51.29644 1.21151 12679 ft 334 kts 218°
2026-05-06 21:01 51.27804 1.18990 12511 ft 333 kts 218°
2026-05-06 21:01 51.25942 1.16802 12334 ft 332 kts 218°
2026-05-06 21:01 51.24080 1.14616 12165 ft 332 kts 218°
2026-05-06 21:02 51.22225 1.12437 11992 ft 331 kts 218°
2026-05-06 21:02 51.20372 1.10261 11824 ft 331 kts 218°
2026-05-06 21:02 51.18520 1.08089 11645 ft 330 kts 218°
2026-05-06 21:02 51.16672 1.05924 11484 ft 330 kts 218°
2026-05-06 21:03 51.14824 1.03762 11306 ft 329 kts 218°
2026-05-06 21:03 51.12983 1.01609 11144 ft 328 kts 217°
2026-05-06 21:03 51.11147 0.99464 10972 ft 327 kts 218°
2026-05-06 21:03 51.09336 0.97353 10809 ft 326 kts 217°
2026-05-06 21:04 51.07507 0.95220 10634 ft 326 kts 217°
2026-05-06 21:04 51.05785 0.92916 10434 ft 323 kts 232°
2026-05-06 21:04 51.04665 0.89853 10299 ft 319 kts 245°
2026-05-06 21:04 51.03729 0.86662 10131 ft 318 kts 246°
2026-05-06 21:05 51.02804 0.83470 9958 ft 318 kts 246°
2026-05-06 21:05 51.01868 0.80268 9783 ft 315 kts 246°
2026-05-06 21:05 51.00958 0.77187 9595 ft 306 kts 246°
2026-05-06 21:05 51.00062 0.74182 9430 ft 296 kts 245°
2026-05-06 21:06 50.99185 0.71256 9353 ft 284 kts 245°
2026-05-06 21:06 50.98350 0.68476 9372 ft 283 kts 245°
2026-05-06 21:06 50.97564 0.65625 9369 ft 281 kts 249°
2026-05-06 21:06 50.96837 0.62785 9359 ft 276 kts 249°
2026-05-06 21:07 50.96124 0.59968 9358 ft 271 kts 249°
2026-05-06 21:07 50.95439 0.57251 9365 ft 268 kts 249°